Flag for U.S.A. Weather past 2 weeks in Escondido, California, U.S.A.

Now
78 °F

Sunny.


Feels Like: 80 °F
Forecast: 65 / 89 °F
Wind: 8 mph from Northwest

Location: Ramona Airport

Current Time: Jul 31, 2014 at 9:07:09 PM

Latest Report: Jul 31, 2014 at 7:53 PM


Visibility: 10 mi

Pressure: 29.87 "Hg

Humidity: 54%

Dew point: 60 °F

Location of EscondidoLocation

Historic Weather in Escondido — Graph

°F

Escondido temperature yesterday

Maximum temperature yesterday: 93 °F (at 12:53 PM)
Minimum temperature yesterday: 63 °F (at 2:53 AM)
Average temperature yesterday: 78 °F

Past Weeks' High & Low Weather Summary

 TemperatureHumidityPressure
High99 °F (Jul 24, 12:53 PM)96% (Jul 22, 4:53 AM)30.06 "Hg (Jul 22, 4:53 AM)
Low55 °F (Jul 22, 2:53 AM)18% (Jul 24, 5:53 PM)29.75 "Hg (Jul 24, 4:53 PM)
Average73 °F60%29.95 "Hg
* Reported Jul 16 7:53 PM — Jul 31 7:53 PM, Escondido, Weather by CustomWeather, © 2014

Note: Actual official high and low records may vary slightly from our data, if they occured in-between our weather recording intervals... More about our weather records

Advertising

Escondido weather history for previous 24 hours

 ConditionsComfort  
Time TempWeatherWind HumidityBarometerVisibility
7:53 PM
Jul 31
78 °FSunny.8 mph54%29.87 "Hg10 mi
6:53 PM85 °FSunny.7 mph43%29.85 "Hg10 mi
5:53 PM89 °FSunny.8 mph38%29.85 "Hg10 mi
4:53 PM92 °FSunny.13 mph31%29.84 "Hg10 mi
3:53 PM94 °FSunny.10 mph29%29.85 "Hg10 mi
2:53 PM93 °FHot.12 mph36%29.86 "Hg10 mi
1:53 PM95 °FSunny.13 mph34%29.87 "Hg10 mi
12:53 PM93 °FSunny.9 mph31%29.88 "Hg10 mi
11:53 AM91 °FSunny.9 mph36%29.89 "Hg10 mi
10:53 AM86 °FSunny.12 mph43%29.90 "Hg10 mi
9:53 AM85 °FSunny.6 mph42%29.90 "Hg10 mi
8:53 AM79 °FSunny.No wind48%29.92 "Hg10 mi
7:53 AM73 °FSunny.3 mph59%29.92 "Hg10 mi
6:53 AM66 °FClear.No wind70%29.92 "Hg10 mi
5:53 AM63 °FClear.No wind73%29.90 "Hg10 mi
4:53 AM62 °FClear.No wind70%29.90 "Hg10 mi
3:53 AM62 °FClear.3 mph73%29.89 "Hg10 mi
2:53 AM65 °FClear.No wind68%29.90 "Hg10 mi
1:53 AM67 °FClear.No wind68%29.91 "Hg10 mi
12:53 AM67 °FClear.No wind66%29.92 "Hg10 mi
11:53 PM
Jul 30
69 °FClear.No wind63%29.92 "Hg10 mi
10:53 PM70 °FClear.3 mph64%29.93 "Hg10 mi
9:53 PM73 °FClear.5 mph59%29.93 "Hg10 mi
Weather by CustomWeather, © 2014

See weather overviewHow to use our weather pages